When you browse on this site, cookies collect data to enhance your experience and personalize the content and advertising you see.
Visit our Privacy Policy to learn more. By continuing to use the site, you agree to this use of cookies and data.
  • In Hungary
  • List of Countries
  • For 7 days
  • Water Temperature
  • Satellite Maps
  • Weather Map
  • News
  • Weather Widgets
  • user-avatar
    Login

    Hourly Weather Grebenka

    Today, 26 April, Friday

    Time Temperature Precipitation Wind Pressure Humidity
    00:00 +15°C° 0 mm 1 mps 757 mmHg 53%
    01:00 +15°C° 0 mm 1 mps 757 mmHg 55%
    02:00 +14°C° 0 mm 1 mps 757 mmHg 58%
    03:00 +14°C° 0 mm 1 mps 757 mmHg 59%
    04:00 +13°C° 0 mm 1 mps 757 mmHg 60%
    05:00 +13°C° 0 mm 1 mps 757 mmHg 61%
    06:00 +15°C° 0 mm 1 mps 757 mmHg 57%
    07:00 +16°C° 0 mm 1 mps 757 mmHg 52%
    08:00 +19°C° 0 mm 1 mps 757 mmHg 48%
    09:00 +20°C° 0 mm 1 mps 756 mmHg 45%
    10:00 +21°C° 0 mm 2 mps 756 mmHg 42%
    11:00 +23°C° 0 mm 2 mps 756 mmHg 38%
    12:00 +22°C° 0 mm 3 mps 756 mmHg 37%
    13:00 +23°C° 0 mm 4 mps 756 mmHg 36%
    14:00 +23°C° 0 mm 4 mps 755 mmHg 35%
    15:00 +23°C° 0 mm 4 mps 755 mmHg 37%
    16:00 +22°C° 0 mm 3 mps 755 mmHg 38%
    17:00 +22°C° 0 mm 3 mps 754 mmHg 39%
    18:00 +20°C° 0 mm 3 mps 754 mmHg 41%
    19:00 +18°C° 0 mm 2 mps 754 mmHg 43%
    20:00 +16°C° 0 mm 2 mps 754 mmHg 45%
    21:00 +16°C° 0 mm 2 mps 754 mmHg 46%
    22:00 +15°C° 0 mm 2 mps 754 mmHg 47%
    23:00 +14°C° 0 mm 2 mps 754 mmHg 48%

    Tomorrow, 27 April, Saturday

    Time Temperature Precipitation Wind Pressure Humidity
    00:00 +14°C° 0 mm 2 mps 754 mmHg 52%
    01:00 +13°C° 0 mm 2 mps 754 mmHg 57%
    02:00 +13°C° 0 mm 2 mps 754 mmHg 62%
    03:00 +12°C° 0 mm 2 mps 753 mmHg 65%
    04:00 +12°C° 0 mm 2 mps 753 mmHg 68%
    05:00 +10°C° 0 mm 2 mps 753 mmHg 71%
    06:00 +12°C° 0 mm 3 mps 753 mmHg 65%
    07:00 +13°C° 0 mm 3 mps 752 mmHg 60%
    08:00 +16°C° 0 mm 3 mps 752 mmHg 55%
    09:00 +18°C° 0 mm 4 mps 752 mmHg 50%
    10:00 +19°C° 0 mm 4 mps 752 mmHg 46%
    11:00 +20°C° 0 mm 5 mps 752 mmHg 41%
    12:00 +21°C° 0 mm 5 mps 751 mmHg 41%
    13:00 +22°C° 0 mm 5 mps 751 mmHg 40%
    14:00 +22°C° 0 mm 5 mps 751 mmHg 39%
    15:00 +22°C° 0 mm 4 mps 750 mmHg 44%
    16:00 +21°C° 0 mm 3 mps 750 mmHg 49%
    17:00 +20°C° 0 mm 2 mps 749 mmHg 54%
    18:00 +19°C° 0 mm 3 mps 749 mmHg 56%
    19:00 +18°C° 0 mm 3 mps 749 mmHg 59%
    20:00 +17°C° 0 mm 3 mps 749 mmHg 62%
    21:00 +17°C° 0 mm 4 mps 749 mmHg 63%
    22:00 +15°C° 0 mm 4 mps 748 mmHg 64%
    23:00 +15°C° 0 mm 5 mps 748 mmHg 64%

    Day after tomorrow, 28 April, Sunday

    Time Temperature Precipitation Wind Pressure Humidity
    00:00 +14°C° 0 mm 5 mps 748 mmHg 64%
    01:00 +13°C° 0 mm 5 mps 748 mmHg 64%
    02:00 +13°C° 0 mm 4 mps 748 mmHg 65%
    03:00 +13°C° 0 mm 4 mps 748 mmHg 65%
    04:00 +12°C° 0 mm 4 mps 748 mmHg 65%
    05:00 +12°C° 0 mm 4 mps 747 mmHg 66%
    06:00 +13°C° 0 mm 4 mps 747 mmHg 64%
    07:00 +14°C° 0 mm 4 mps 747 mmHg 62%
    08:00 +15°C° 0 mm 4 mps 747 mmHg 61%
    09:00 +17°C° 0 mm 4 mps 747 mmHg 58%
    10:00 +18°C° 0 mm 4 mps 747 mmHg 54%
    11:00 +20°C° 0 mm 5 mps 747 mmHg 51%
    12:00 +20°C° 0 mm 4 mps 747 mmHg 51%
    13:00 +20°C° 0 mm 3 mps 747 mmHg 52%
    14:00 +21°C° 0 mm 2 mps 747 mmHg 52%
    15:00 +21°C° 0 mm 2 mps 747 mmHg 54%
    16:00 +22°C° 0 mm 1 mps 747 mmHg 55%
    17:00 +22°C° 0 mm 1 mps 747 mmHg 57%
    18:00 +20°C° 0.1 mm 1 mps 747 mmHg 64%
    19:00 +18°C° 0.1 mm 2 mps 747 mmHg 71%
    20:00 +16°C° 0.1 mm 3 mps 747 mmHg 78%
    21:00 +16°C° 0.1 mm 2 mps 748 mmHg 82%
    22:00 +15°C° 0.1 mm 2 mps 748 mmHg 85%
    23:00 +15°C° 0.1 mm 1 mps 748 mmHg 89%

    29 April, Monday

    Time Temperature Precipitation Wind Pressure Humidity
    00:00 +15°C° 0.5 mm 2 mps 748 mmHg 90%
    01:00 +14°C° 0.5 mm 2 mps 748 mmHg 91%
    02:00 +13°C° 0.5 mm 3 mps 748 mmHg 92%
    03:00 +13°C° 0.5 mm 4 mps 749 mmHg 93%
    04:00 +12°C° 0.5 mm 5 mps 749 mmHg 93%
    05:00 +12°C° 0.5 mm 5 mps 749 mmHg 93%
    06:00 +10°C° 0.7 mm 6 mps 749 mmHg 92%
    07:00 +10°C° 0.7 mm 6 mps 749 mmHg 90%
    08:00 +9°C° 0.7 mm 6 mps 750 mmHg 89%
    09:00 +9°C° 0.8 mm 6 mps 750 mmHg 87%
    10:00 +9°C° 0.8 mm 7 mps 750 mmHg 86%
    11:00 +9°C° 0.8 mm 7 mps 750 mmHg 85%
    12:00 +9°C° 0.2 mm 7 mps 750 mmHg 83%
    13:00 +10°C° 0.2 mm 7 mps 750 mmHg 81%
    14:00 +10°C° 0.2 mm 7 mps 750 mmHg 79%
    15:00 +10°C° 0 mm 7 mps 750 mmHg 78%
    16:00 +10°C° 0 mm 7 mps 750 mmHg 77%
    17:00 +10°C° 0 mm 7 mps 750 mmHg 76%
    18:00 +9°C° 0 mm 6 mps 750 mmHg 77%
    19:00 +9°C° 0 mm 6 mps 750 mmHg 77%
    20:00 +8°C° 0 mm 6 mps 750 mmHg 77%
    21:00 +8°C° 0 mm 6 mps 750 mmHg 79%
    22:00 +8°C° 0 mm 6 mps 750 mmHg 81%
    23:00 +8°C° 0 mm 6 mps 750 mmHg 84%

    30 April, Tuesday

    Time Temperature Precipitation Wind Pressure Humidity
    00:00 +8°C° 0 mm 6 mps 749 mmHg 83%
    01:00 +8°C° 0 mm 6 mps 749 mmHg 83%
    02:00 +7°C° 0 mm 6 mps 749 mmHg 82%
    03:00 +7°C° 0.1 mm 6 mps 749 mmHg 83%
    04:00 +7°C° 0.1 mm 6 mps 748 mmHg 84%
    05:00 +7°C° 0.1 mm 6 mps 748 mmHg 84%
    06:00 +7°C° 0.2 mm 6 mps 748 mmHg 85%
    07:00 +8°C° 0.2 mm 6 mps 748 mmHg 86%
    08:00 +8°C° 0.2 mm 6 mps 748 mmHg 87%
    09:00 +8°C° 1 mm 6 mps 747 mmHg 88%
    10:00 +8°C° 1 mm 6 mps 747 mmHg 89%
    11:00 +8°C° 1 mm 6 mps 747 mmHg 91%
    12:00 +8°C° 0.7 mm 6 mps 747 mmHg 90%
    13:00 +8°C° 0.7 mm 7 mps 747 mmHg 90%
    14:00 +6°C° 0.7 mm 7 mps 747 mmHg 89%
    15:00 +8°C° 0 mm 7 mps 746 mmHg 89%
    16:00 +8°C° 0 mm 7 mps 746 mmHg 88%
    17:00 +8°C° 0 mm 7 mps 746 mmHg 87%
    18:00 +7°C° 0 mm 6 mps 746 mmHg 88%
    19:00 +7°C° 0 mm 6 mps 746 mmHg 89%
    20:00 +7°C° 0 mm 6 mps 746 mmHg 89%
    21:00 +5°C° 0 mm 6 mps 746 mmHg 90%
    22:00 +6°C° 0 mm 5 mps 746 mmHg 90%
    23:00 +6°C° 0 mm 5 mps 745 mmHg 90%

    1 May, Wednesday

    Time Temperature Precipitation Wind Pressure Humidity
    00:00 +6°C° 0 mm 5 mps 745 mmHg 91%
    01:00 +6°C° 0 mm 5 mps 745 mmHg 91%
    02:00 +6°C° 0 mm 5 mps 745 mmHg 91%
    03:00 +6°C° 0.1 mm 5 mps 745 mmHg 91%
    04:00 +6°C° 0.1 mm 5 mps 744 mmHg 91%
    05:00 +6°C° 0.1 mm 5 mps 744 mmHg 92%
    06:00 +6°C° 0.1 mm 4 mps 744 mmHg 92%
    07:00 +6°C° 0.1 mm 4 mps 744 mmHg 91%
    08:00 +6°C° 0.1 mm 4 mps 744 mmHg 91%
    09:00 +7°C° 0.1 mm 4 mps 744 mmHg 90%
    10:00 +8°C° 0.1 mm 4 mps 744 mmHg 89%
    11:00 +10°C° 0.1 mm 3 mps 744 mmHg 87%
    12:00 +11°C° 0 mm 4 mps 744 mmHg 85%
    13:00 +12°C° 0 mm 4 mps 743 mmHg 83%
    14:00 +13°C° 0 mm 4 mps 743 mmHg 81%
    15:00 +12°C° 0 mm 4 mps 743 mmHg 83%
    16:00 +11°C° 0 mm 4 mps 742 mmHg 85%
    17:00 +11°C° 0 mm 4 mps 742 mmHg 87%
    18:00 +10°C° 0 mm 4 mps 742 mmHg 88%
    19:00 +8°C° 0 mm 4 mps 742 mmHg 89%
    20:00 +9°C° 0 mm 3 mps 742 mmHg 91%
    21:00 +8°C° 0.1 mm 4 mps 741 mmHg 91%
    22:00 +7°C° 0.1 mm 4 mps 741 mmHg 91%
    23:00 +7°C° 0.1 mm 4 mps 741 mmHg 91%
    Show more